Location: Feydey
(46.3431°N, 7.0106°E)
Time: 20:44:34
(UTC+00:00)

Cosmos 1328 - Pass Details

Date: 24 October 2021
Orbit: 529 x 552 km, 82.5° (Epoch: 03 December)

Event Time Altitude Azimuth Distance (km) Brightness Sun altitude
Rises 17:18:21 0° 353° (N) 2,737 7.4 -9.0°
Reaches altitude 10° 17:20:32 10° 355° (N) 1,839 6.5 -9.4°
Maximum altitude 17:24:35 70° 79° (E) 593 3.7 -10.1°
Drops below altitude 10° 17:28:35 10° 164° (SSE) 1,825 6.4 -10.8°
Sets 17:30:45 0° 167° (SSE) 2,714 7.3 -11.2°
